DW6963 Weather Reports


time (UTC)temp
F
wind
direction
speed
knots
gust
knots
rain 1hr
in
rain 24hr
in
rain mn
in
humidity
%
barometer
mb
20260505010412 70 0 0.0 0.0 0.00 0.00 0.00 54 1005.5
20260505005912 70 0 0.0 0.0 0.00 0.00 0.00 53 1005.6
20260505005412 70 0 0.0 0.0 0.00 0.00 0.00 52 1005.6
20260505004912 71 0 0.0 0.0 0.00 0.00 0.00 51 1005.5
20260505004412 71 0 0.0 0.0 0.00 0.00 0.00 51 1005.5
20260505003913 71 0 0.0 0.0 0.00 0.00 0.00 50 1005.5
20260505002412 72 0 0.0 0.0 0.00 0.00 0.00 49 1005.7
20260505001912 72 0 0.0 0.0 0.00 0.00 0.00 49 1005.7
20260505000912 72 0 0.0 0.0 0.00 0.00 0.00 50 1005.8
20260505000413 72 0 0.0 0.0 0.00 0.00 0.00 50 1005.7
20260504235413 72 0 0.0 0.0 0.00 0.00 0.00 52 1005.8
20260504234413 73 0 0.0 0.0 0.00 0.00 0.00 53 1005.9
20260504233912 73 0 0.0 0.0 0.00 0.00 0.00 52 1005.8
20260504233413 73 0 0.0 0.0 0.00 0.00 0.00 52 1005.8
20260504232912 73 0 0.0 0.0 0.00 0.00 0.00 53 1005.8
20260504232413 72 0 0.0 0.0 0.00 0.00 0.00 55 1005.9
20260504231912 72 0 0.0 0.0 0.00 0.00 0.00 56 1005.9
20260504230912 72 0 0.0 0.0 0.00 0.00 0.00 55 1006.1
20260504230413 72 0 0.0 0.0 0.00 0.00 0.00 55 1006.1
20260504225912 73 0 0.0 0.0 0.00 0.00 0.00 54 1006.2
20260504224913 73 0 0.0 0.0 0.00 0.00 0.00 55 1006.3
20260504224412 73 0 0.0 0.0 0.00 0.00 0.00 55 1006.3
20260504223912 72 0 0.0 0.0 0.00 0.00 0.00 55 1006.4
20260504223412 72 0 0.0 0.0 0.00 0.00 0.00 56 1006.4
20260504222913 72 0 0.0 0.0 0.00 0.00 0.00 55 1006.5
20260504222412 72 0 0.0 0.0 0.00 0.00 0.00 54 1006.5
20260504221912 72 0 0.0 0.0 0.00 0.00 0.00 54 1006.3
20260504220912 72 0 0.0 0.0 0.00 0.00 0.00 53 1006.8
20260504215412 73 0 0.0 0.0 0.00 0.00 0.00 52 1006.9
20260504214912 72 0 0.0 0.0 0.00 0.00 0.00 52 1007.0
20260504213912 72 0 0.0 0.0 0.00 0.00 0.00 52 1007.0
20260504212912 72 0 0.0 0.0 0.00 0.00 0.00 52 1007.2
20260504212413 72 0 0.0 0.0 0.00 0.00 0.00 51 1007.3
20260504211912 72 0 0.0 0.0 0.00 0.00 0.00 53 1007.3
20260504210913 72 0 0.0 0.0 0.00 0.00 0.00 53 1007.4
20260504210412 72 0 0.0 0.0 0.00 0.00 0.00 54 1007.5
20260504205912 72 0 0.0 0.0 0.00 0.00 0.00 54 1007.6
20260504205412 72 0 0.0 0.0 0.00 0.00 0.00 54 1007.5
20260504204912 72 0 0.0 0.0 0.00 0.00 0.00 53 1007.7
20260504204412 72 0 0.0 0.0 0.00 0.00 0.00 58 1007.7
20260504203912 71 0 0.0 0.0 0.00 0.00 0.00 57 1007.6
20260504203412 71 0 0.0 0.0 0.00 0.00 0.00 57 1007.6
20260504202912 70 0 0.0 0.0 0.00 0.00 0.00 59 1007.7
20260504202412 70 0 0.0 0.0 0.00 0.00 0.00 58 1007.7
20260504201912 70 0 0.0 0.0 0.00 0.00 0.00 59 1007.5
20260504201413 69 0 0.0 0.0 0.00 0.00 0.00 60 1007.5
20260504200913 69 0 0.0 0.0 0.00 0.00 0.00 61 1007.9
20260504200412 68 0 0.0 0.0 0.00 0.00 0.00 62 1008.1
20260504195912 68 0 0.0 0.0 0.00 0.00 0.00 64 1007.9
20260504195412 67 0 0.0 0.0 0.00 0.00 0.00 63 1008.2
20260504194912 66 0 0.0 0.0 0.00 0.00 0.00 65 1008.5
20260504194412 66 0 0.0 0.0 0.00 0.00 0.00 65 1008.6
20260504193912 66 0 0.0 0.0 0.00 0.00 0.00 65 1008.8
20260504193413 66 0 0.0 0.0 0.00 0.00 0.00 65 1009.1
20260504192912 66 0 0.0 0.0 0.00 0.00 0.00 64 1008.7
20260504192413 66 0 0.0 0.0 0.00 0.00 0.00 63 1009.4
20260504191912 67 0 0.0 0.0 0.00 0.00 0.00 62 1009.1
20260504191413 67 0 0.0 0.0 0.00 0.00 0.00 62 1009.6
20260504190912 66 0 0.0 0.0 0.00 0.00 0.00 63 1009.3
20260504190413 67 0 0.0 0.0 0.00 0.00 0.00 64 1009.3
20260504185912 67 0 0.0 0.0 0.00 0.00 0.00 61 1009.2
20260504185412 67 0 0.0 0.0 0.00 0.00 0.00 60 1009.1
20260504184912 68 0 0.0 0.0 0.00 0.00 0.00 59 1009.0
20260504184412 68 0 0.0 0.0 0.00 0.00 0.00 59 1008.6
20260504183913 69 0 0.0 0.0 0.00 0.00 0.00 57 1008.5
20260504183413 70 0 0.0 0.0 0.00 0.00 0.00 58 1008.5
20260504182913 70 0 0.0 0.0 0.00 0.00 0.00 60 1008.3
20260504182412 69 0 0.0 0.0 0.00 0.00 0.00 62 1008.2
20260504181413 68 0 0.0 0.0 0.00 0.00 0.00 61 1008.1
20260504180913 68 0 0.0 0.0 0.00 0.00 0.00 59 1008.4
20260504180412 68 0 0.0 0.0 0.00 0.00 0.00 59 1008.3
20260504175912 68 0 0.0 0.0 0.00 0.00 0.00 61 1008.4
20260504175412 68 0 0.0 0.0 0.00 0.00 0.00 60 1008.5
20260504174912 67 0 0.0 0.0 0.00 0.00 0.00 60 1008.3
20260504174413 67 0 0.0 0.0 0.00 0.00 0.00 60 1008.2
20260504173413 67 0 0.0 0.0 0.00 0.00 0.00 61 1008.3
20260504172412 66 0 0.0 0.0 0.00 0.00 0.00 63 1008.4
20260504171912 66 0 0.0 0.0 0.00 0.00 0.00 63 1008.5
20260504170912 65 0 0.0 0.0 0.00 0.00 0.00 62 1008.6
20260504170412 65 0 0.0 0.0 0.00 0.00 0.00 64 1008.6
20260504160413 65 0 0.0 0.0 0.00 0.00 0.00 63 1009.2
20260504150913 62 0 0.0 0.0 0.00 0.00 0.00 67 1009.2
20260504150412 62 0 0.0 0.0 0.00 0.00 0.00 67 1009.2
20260504140913 59 0 0.0 0.0 0.00 0.00 0.00 68 1009.7
20260504130412 56 0 0.0 0.0 0.00 0.00 0.00 68 1010.1
20260504110412 51 0 0.0 0.0 0.00 0.00 0.00 69 1010.0
20260504100412 50 0 0.0 0.0 0.00 0.00 0.00 67 1010.0
20260504081912 52 0 0.0 0.0 0.00 0.00 0.00 64 1010.8
20260504081413 52 0 0.0 0.0 0.00 0.00 0.00 64 1010.8
20260504080912 52 0 0.0 0.0 0.00 0.00 0.00 64 1010.8
20260504050412 53 0 0.0 0.0 0.00 0.00 0.00 59 1012.5
20260504045913 53 0 0.0 0.0 0.00 0.00 0.00 59 1012.5
20260504045413 54 0 0.0 0.0 0.00 0.00 0.00 59 1012.5
20260504044912 54 0 0.0 0.0 0.00 0.00 0.00 58 1012.6
20260504043912 54 0 0.0 0.0 0.00 0.00 0.00 58 1012.7
20260504043413 54 0 0.0 0.0 0.00 0.00 0.00 58 1012.7
20260504042912 54 0 0.0 0.0 0.00 0.00 0.00 58 1012.7
20260504042413 54 0 0.0 0.0 0.00 0.00 0.00 58 1012.8
20260504041912 54 0 0.0 0.0 0.00 0.00 0.00 58 1012.8
20260504041413 54 0 0.0 0.0 0.00 0.00 0.00 57 1013.0
20260504040912 54 0 0.0 0.0 0.00 0.00 0.00 58 1013.0
20260504040416 54 0 0.0 0.0 0.00 0.00 0.00 58 1013.1
20260504035913 54 0 0.0 0.0 0.00 0.00 0.00 58 1013.1
20260504035413 54 0 0.0 0.0 0.00 0.00 0.00 58 1013.2
20260504034912 54 0 0.0 0.0 0.00 0.00 0.00 58 1013.3
20260504034413 54 0 0.0 0.0 0.00 0.00 0.00 57 1013.2
20260504033912 54 0 0.0 0.0 0.00 0.00 0.00 57 1013.2
20260504033413 54 0 0.0 0.0 0.00 0.00 0.00 57 1013.2
20260504032912 54 0 0.0 0.0 0.00 0.00 0.00 56 1013.2
20260504032413 54 0 0.0 0.0 0.00 0.00 0.00 55 1013.3
20260504031912 54 0 0.0 0.0 0.00 0.00 0.00 56 1013.3
20260504031413 54 0 0.0 0.0 0.00 0.00 0.00 55 1013.4
20260504030912 54 0 0.0 0.0 0.00 0.00 0.00 55 1013.4
20260504025912 54 0 0.0 0.0 0.00 0.00 0.00 55 1013.5
20260504025413 55 0 0.0 0.0 0.00 0.00 0.00 54 1013.6
20260504024912 55 0 0.0 0.0 0.00 0.00 0.00 54 1013.7
20260504024412 55 0 0.0 0.0 0.00 0.00 0.00 54 1013.5
20260504023912 54 0 0.0 0.0 0.00 0.00 0.00 55 1013.5
20260504023413 54 0 0.0 0.0 0.00 0.00 0.00 56 1013.5
20260504022913 54 0 0.0 0.0 0.00 0.00 0.00 57 1013.6
20260504022412 54 0 0.0 0.0 0.00 0.00 0.00 59 1013.6
20260504021413 54 0 0.0 0.0 0.00 0.00 0.00 58 1013.6
20260504015913 54 0 0.0 0.0 0.00 0.00 0.00 58 1013.5
20260504015413 54 0 0.0 0.0 0.00 0.00 0.00 58 1013.4
20260504014913 54 0 0.0 0.0 0.00 0.00 0.00 57 1013.4
20260504014413 54 0 0.0 0.0 0.00 0.00 0.00 57 1013.4
20260504013913 54 0 0.0 0.0 0.00 0.00 0.00 59 1013.4
20260504013414 54 0 0.0 0.0 0.00 0.00 0.00 58 1013.4
20260504012912 54 0 0.0 0.0 0.00 0.00 0.00 57 1013.3
20260504012413 55 0 0.0 0.0 0.00 0.00 0.00 56 1013.4
20260504011913 55 0 0.0 0.0 0.00 0.00 0.00 56 1013.5
20260504011413 55 0 0.0 0.0 0.00 0.00 0.00 54 1013.5
20260504010913 55 0 0.0 0.0 0.00 0.00 0.00 55 1013.6